[[{"header":{"parameterUnit":"m.s-1","parameterCategory":2,"la1":30.2991,"la2":30.254,"lo1":-89.0895,"lo2":-89.0444,"dy":0.0017,"dx":0.0017,"nx":28,"ny":28,"refTime":"2024-05-14T21:00:00:Z","depth":"0","parameterNumber":2,"parameterNumberName":"U-component_of_CURRENTS"},"data":[0,0,0,0,0,0,0,0,0,0,0,0,0,0,0,0,0,0,0,0,0,0,0,0,0,0,0,0,0,0,0,0,0,0,0,0,0,0,0,0,0,0,0,0,0,0,0,0,0,0,0,0,0,0,0,0,0,0,0.1944,0.1945,0,0.1862,0.186,0.1857,0.1749,0.1749,0.1749,0.1749,0.1579,0.1575,0.157,0,0,0,0,0,0,0,0,0,0,0,0,0,0.1868,0.1869,0.1944,0.1945,0.1946,0.1863,0.186,0.1857,0.1749,0.1749,0.1749,0.1749,0.1581,0.1575,0.157,0,0,0,0,0,0,0,0,0,0,0,0,0,0.1837,0.187,0.1944,0.1896,0.1892,0.1863,0.186,0.1856,0.1749,0.1749,0.1749,0.1749,0.1582,0.1576,0.1569,0.1528,0,0,0.1548,0.1546,0,0,0,0,0,0,0,0,0.1839,0.1838,0.1902,0.19,0.1896,0.1833,0.1772,0.1749,0.1749,0.1783,0.1749,0.1749,0.1668,0.1654,0.1613,0.152,0.1513,0.1548,0.1544,0.1541,0.1539,0,0,0,0,0,0,0,0.1842,0.184,0.1892,0.1904,0.19,0.1833,0.1827,0.1765,0.1711,0.178,0.1777,0.1798,0.1663,0.162,0.1608,0.151,0.1548,0.1542,0.1538,0.1535,0.1435,0.1437,0,0,0,0,0,0,0.1898,0.1843,0.1895,0.1892,0.1888,0.1836,0.1829,0.1837,0.1713,0.17,0.1799,0.1794,0.1631,0.1616,0.1602,0.1561,0.1541,0.1535,0.1531,0.1434,0.1436,0.1437,0,0,0,0,0,0,0.1896,0.1903,0.1899,0.1881,0.1879,0.184,0.1849,0.1836,0.1808,0.1732,0.1713,0.1789,0.1631,0.1612,0.1568,0.1553,0.1532,0.1525,0.1432,0.1435,0.1436,0.147,0,0,0,0,0,0,0.1894,0.1902,0.1867,0.1885,0.1883,0.1875,0.185,0.1835,0.183,0.1823,0.1717,0.17,0.1629,0.1579,0.1562,0.1544,0.152,0.1431,0.1433,0.1436,0.1467,0.1473,0.1478,0,0,0,0,0,0.1891,0.1867,0.1866,0.187,0.1856,0.1877,0.1865,0.1825,0.1831,0.1801,0.1759,0.1704,0.1584,0.1574,0.1554,0.1533,0.1429,0.1433,0.1436,0.1464,0.1472,0.1478,0,0,0,0,0,0,0.179,0.1856,0.1855,0.1842,0.186,0.1866,0.183,0.1843,0.1783,0.1773,0.171,0.1689,0.1647,0.1603,0.1596,0.1521,0.1502,0.1501,0.1531,0.1537,0.1542,0.1522,0.1515,0,0,0,0,0,0.1767,0.177,0.1828,0.1807,0.1828,0.1837,0.1827,0.1826,0.1814,0.1787,0.1732,0.1681,0.164,0.1603,0.1548,0.15,0.1459,0.1483,0.1489,0.1493,0.1468,0.142,0.1418,0.1448,0.1448,0.1448,0,0,0.1711,0.1758,0.1745,0.1786,0.1791,0.1794,0.1824,0.1832,0.1818,0.1779,0.1712,0.1693,0.1639,0.1583,0.156,0.1542,0.147,0.1497,0.1501,0.1473,0.1423,0.1419,0.1416,0.145,0.1449,0.1449,0,0,0.1666,0.1665,0.1675,0.1696,0.1748,0.1749,0.1774,0.1799,0.1783,0.1755,0.1735,0.1723,0.1634,0.1599,0.1573,0.1585,0.1508,0.1573,0.156,0.1515,0.1511,0.1506,0.147,0.1462,0.1565,0.1565,0.1565,0,0.1578,0.1627,0.1669,0.17,0.1708,0.1746,0.1756,0.174,0.1738,0.1735,0.1734,0.1668,0.1637,0.1593,0.1599,0.159,0.155,0.1534,0.1518,0.1513,0.1507,0.1471,0.1461,0.1567,0.1567,0.1566,0.1566,0,0.1571,0.159,0.1603,0.1645,0.1645,0.166,0.1692,0.1676,0.1684,0.1684,0.1665,0.164,0.1599,0.1608,0.1596,0.1559,0.1539,0.1536,0.1492,0.1506,0.1468,0.1457,0.157,0.1569,0.1568,0.1568,0,0,0.1429,0.1566,0.1565,0.1593,0.1627,0.1636,0.1615,0.1622,0.1614,0.1605,0.1583,0.157,0.158,0.1556,0.1559,0.1532,0.1492,0.1514,0.1511,0.1461,0.1382,0.1379,0.1368,0.1473,0.1471,0.1469,0.1376,0,0.1401,0.1468,0.1531,0.1534,0.1567,0.1587,0.1563,0.1563,0.156,0.1531,0.1545,0.1516,0.1553,0.1541,0.1522,0.1486,0.1462,0.1517,0.1389,0.1386,0.1367,0.1355,0.132,0.1234,0.1366,0.1364,0.1363,0,0.1383,0.1436,0.1467,0.1531,0.1541,0.1522,0.1499,0.1492,0.1472,0.1473,0.1458,0.1456,0.1423,0.1457,0.1389,0.1412,0.1397,0.1384,0.1379,0.1347,0.1362,0.1239,0.1209,0.1076,0.1346,0.1348,0.1349,0,0.131,0.1389,0.1414,0.1427,0.1483,0.1477,0.1477,0.1467,0.1459,0.1426,0.1399,0.1374,0.1334,0.1309,0.1292,0.1322,0.1206,0.1244,0.1234,0.1234,0.1163,0.116,0.0968,0.1197,0.1197,0.1198,0.1198,0,0.1278,0.1298,0.1384,0.1395,0.1379,0.1434,0.14,0.1405,0.1391,0.135,0.1362,0.1311,0.129,0.1233,0.1238,0.1184,0.1158,0.1211,0.1199,0.118,0.1179,0.1028,0.0968,0.1194,0.1195,0.1196,0.1196,0,0.1215,0.128,0.1311,0.1362,0.1363,0.1344,0.135,0.1325,0.1332,0.1267,0.1248,0.1221,0.115,0.1139,0.1078,0.1101,0.1006,0.1065,0.105,0.1039,0.0936,0.0882,0.0709,0.0717,0.1034,0.1034,0.1033,0,0.1196,0.1215,0.1258,0.1243,0.1266,0.1252,0.1229,0.1266,0.1245,0.1207,0.1161,0.1097,0.1036,0.096,0.0978,0.0963,0.0929,0.0941,0.1013,0.0896,0.0826,0.0827,0.0848,0.0938,0.0937,0.0935,0.0935,0,0.1133,0.1152,0.1168,0.1153,0.1133,0.1127,0.1117,0.1103,0.112,0.1076,0.1021,0.0978,0.0918,0.0874,0.0872,0.0885,0.0848,0.092,0.078,0.0708,0.0708,0.0722,0.1042,0.0924,0.0925,0.0926,0.0927,0.0927,0.1052,0.1047,0.1065,0.1044,0.1024,0.102,0.1015,0.1006,0.0982,0.0937,0.091,0.0811,0.0751,0.0752,0.0776,0.0707,0.0772,0.0685,0.0622,0.063,0.0644,0.0952,0.0842,0.0842,0.0843,0.0843,0.0844,0,0.0936,0.0959,0.0948,0.0949,0.0921,0.0948,0.0942,0.094,0.0909,0.0823,0.0776,0.0589,0.0534,0.0499,0.0416,0.0371,0.0463,0.0333,0.0288,0.0329,0.0559,0.0561,0.0405,0.0405,0.0405,0.0405,0.0406,0.0406,0.0871,0.0851,0.088,0.0841,0.0853,0.0849,0.0859,0.0845,0.08,0.0637,0.0485,0.0397,0.014,-0.008,-0.016,-0.0065,-0.0086,-0.0061,-0.005,0.0035,0.0063,0.0089,0.0075,-0.018,-0.0181,-0.0227,-0.0228,-0.023]},{"header":{"parameterUnit":"m.s-1","parameterCategory":2,"la1":30.2991,"la2":30.254,"lo1":-89.0895,"lo2":-89.0444,"dy":0.0017,"dx":0.0017,"nx":28,"ny":28,"refTime":"2024-05-14T21:00:00:Z","depth":"0","parameterNumber":3,"parameterNumberName":"V-component_of_CURRENTS"},"data":[0,0,0,0,0,0,0,0,0,0,0,0,0,0,0,0,0,0,0,0,0,0,0,0,0,0,0,0,0,0,0,0,0,0,0,0,0,0,0,0,0,0,0,0,0,0,0,0,0,0,0,0,0,0,0,0,0,0,-0.2244,-0.2243,0,-0.2123,-0.2122,-0.212,-0.1999,-0.1997,-0.1995,-0.1994,-0.1832,-0.183,-0.1827,0,0,0,0,0,0,0,0,0,0,0,0,0,-0.2369,-0.2368,-0.2244,-0.2242,-0.2241,-0.2123,-0.2122,-0.212,-0.1999,-0.1997,-0.1995,-0.1993,-0.1833,-0.183,-0.1827,0,0,0,0,0,0,0,0,0,0,0,0,0,-0.2289,-0.2367,-0.2244,-0.2166,-0.2157,-0.2124,-0.2122,-0.212,-0.2,-0.1997,-0.1994,-0.1992,-0.1834,-0.183,-0.1826,-0.1853,0,0,-0.1814,-0.1812,0,0,0,0,0,0,0,0,-0.2294,-0.2285,-0.2179,-0.2171,-0.2162,-0.2073,-0.2106,-0.2028,-0.2,-0.206,-0.1994,-0.1991,-0.191,-0.19,-0.1885,-0.1845,-0.1838,-0.1814,-0.1811,-0.1809,-0.1808,0,0,0,0,0,0,0,-0.23,-0.2289,-0.2197,-0.2177,-0.2167,-0.2136,-0.2122,-0.2091,-0.2001,-0.2055,-0.2046,-0.2032,-0.1905,-0.1889,-0.188,-0.1836,-0.1814,-0.181,-0.1808,-0.1806,-0.1832,-0.1835,0,0,0,0,0,0,-0.2316,-0.2295,-0.2201,-0.2193,-0.2222,-0.2136,-0.212,-0.2104,-0.2002,-0.1984,-0.2034,-0.2026,-0.1897,-0.1885,-0.1874,-0.1905,-0.1809,-0.1806,-0.1803,-0.1829,-0.1833,-0.1836,0,0,0,0,0,0,-0.2319,-0.2309,-0.2206,-0.2241,-0.2225,-0.2136,-0.212,-0.2103,-0.209,-0.1986,-0.1967,-0.2038,-0.1895,-0.1879,-0.1877,-0.1897,-0.1804,-0.18,-0.1825,-0.183,-0.1834,-0.1963,0,0,0,0,0,0,-0.2323,-0.231,-0.2301,-0.2242,-0.2224,-0.2193,-0.2122,-0.2103,-0.2085,-0.2074,-0.1984,-0.1965,-0.1891,-0.1884,-0.1873,-0.189,-0.1797,-0.1821,-0.1827,-0.1833,-0.1955,-0.1972,-0.1986,0,0,0,0,0,-0.2328,-0.2333,-0.2302,-0.229,-0.2215,-0.2195,-0.2184,-0.2112,-0.2088,-0.2091,-0.205,-0.1968,-0.1912,-0.1884,-0.187,-0.1886,-0.1818,-0.1825,-0.1832,-0.1948,-0.1968,-0.1986,0,0,0,0,0,0,-0.239,-0.232,-0.2283,-0.2267,-0.2235,-0.2173,-0.217,-0.2136,-0.2108,-0.2101,-0.2012,-0.1993,-0.1994,-0.1945,-0.1916,-0.1917,-0.1851,-0.1855,-0.1943,-0.1962,-0.1977,-0.1945,-0.1794,0,0,0,0,0,-0.24,-0.238,-0.2321,-0.2312,-0.2303,-0.2247,-0.223,-0.219,-0.2156,-0.214,-0.2082,-0.2038,-0.2015,-0.1993,-0.1957,-0.1967,-0.187,-0.1972,-0.1987,-0.2,-0.197,-0.1891,-0.1895,-0.1859,-0.1859,-0.1859,0,0,-0.242,-0.2382,-0.2367,-0.2323,-0.2296,-0.2278,-0.2232,-0.2223,-0.2206,-0.2131,-0.2111,-0.2089,-0.2035,-0.2036,-0.2031,-0.1993,-0.1961,-0.2009,-0.202,-0.1982,-0.1899,-0.1901,-0.1903,-0.1864,-0.1863,-0.1862,0,0,-0.2475,-0.2426,-0.2435,-0.2401,-0.2364,-0.2323,-0.2331,-0.2286,-0.2265,-0.226,-0.221,-0.2214,-0.2161,-0.2131,-0.211,-0.2199,-0.205,-0.2193,-0.2232,-0.2159,-0.2159,-0.2159,-0.2031,-0.2018,-0.2196,-0.2196,-0.2196,0,-0.2481,-0.2487,-0.244,-0.2436,-0.2401,-0.2351,-0.235,-0.2329,-0.2287,-0.2284,-0.2264,-0.2226,-0.2199,-0.2195,-0.223,-0.2227,-0.2135,-0.2163,-0.2174,-0.2171,-0.2168,-0.2037,-0.2021,-0.2203,-0.2202,-0.2202,-0.2201,0,-0.2541,-0.2529,-0.254,-0.2495,-0.2465,-0.2458,-0.2408,-0.2398,-0.2375,-0.2347,-0.2351,-0.2329,-0.2293,-0.2313,-0.2294,-0.2282,-0.2206,-0.2203,-0.2114,-0.2178,-0.2038,-0.2018,-0.2213,-0.2211,-0.2209,-0.2207,0,0,-0.2563,-0.2572,-0.2572,-0.255,-0.2485,-0.2463,-0.2453,-0.2426,-0.2409,-0.24,-0.2378,-0.2402,-0.2386,-0.2364,-0.2354,-0.2311,-0.224,-0.2253,-0.2246,-0.2102,-0.2017,-0.1981,-0.1954,-0.2229,-0.2226,-0.2225,-0.1923,0,-0.2607,-0.2632,-0.2615,-0.2597,-0.2583,-0.2516,-0.2497,-0.2463,-0.2435,-0.2402,-0.2405,-0.238,-0.2406,-0.2391,-0.2365,-0.2253,-0.2194,-0.2317,-0.1994,-0.1983,-0.1925,-0.1934,-0.1827,-0.1551,-0.1903,-0.1899,-0.1897,0,-0.2653,-0.2652,-0.2671,-0.2621,-0.261,-0.2583,-0.2511,-0.2492,-0.2448,-0.2426,-0.2412,-0.2382,-0.2336,-0.235,-0.2173,-0.2239,-0.214,-0.2059,-0.2046,-0.1943,-0.1912,-0.1548,-0.15,-0.1341,-0.1865,-0.1868,-0.187,0,-0.2673,-0.2676,-0.2693,-0.2665,-0.261,-0.2598,-0.2564,-0.251,-0.2466,-0.2429,-0.2368,-0.2333,-0.2254,-0.2157,-0.2015,-0.2072,-0.1775,-0.1829,-0.1696,-0.1689,-0.1496,-0.1478,-0.1231,-0.17,-0.1701,-0.1702,-0.1703,0,-0.2689,-0.2676,-0.2705,-0.2684,-0.2641,-0.2619,-0.2559,-0.2522,-0.2462,-0.2374,-0.238,-0.2279,-0.2199,-0.2036,-0.1949,-0.1725,-0.171,-0.1668,-0.1612,-0.1543,-0.1533,-0.1305,-0.1248,-0.169,-0.1693,-0.1695,-0.1697,0,-0.2651,-0.2701,-0.2671,-0.2658,-0.264,-0.2595,-0.25,-0.2433,-0.2419,-0.2289,-0.2263,-0.217,-0.1964,-0.1847,-0.1632,-0.1596,-0.1298,-0.1356,-0.1258,-0.1201,-0.1009,-0.0965,-0.0644,-0.0558,-0.1163,-0.116,-0.1158,0,-0.26,-0.2611,-0.2615,-0.2562,-0.2537,-0.2478,-0.2394,-0.2383,-0.23,-0.2197,-0.2103,-0.1936,-0.177,-0.1453,-0.1342,-0.1137,-0.1083,-0.0957,-0.1103,-0.0948,-0.0856,-0.0868,-0.0822,-0.0868,-0.0863,-0.086,-0.0857,0,-0.2433,-0.2482,-0.2459,-0.2419,-0.2344,-0.2245,-0.216,-0.2116,-0.2075,-0.1997,-0.1851,-0.1743,-0.1466,-0.1229,-0.1018,-0.091,-0.0819,-0.0883,-0.0728,-0.0603,-0.0583,-0.049,-0.1087,-0.0825,-0.0828,-0.083,-0.0832,-0.0833,-0.2253,-0.2221,-0.2253,-0.221,-0.2139,-0.2044,-0.1973,-0.1894,-0.181,-0.1727,-0.1645,-0.1488,-0.1186,-0.0897,-0.0746,-0.0438,-0.0557,-0.0387,-0.0333,-0.0351,-0.0315,-0.0843,-0.0551,-0.0553,-0.0554,-0.0555,-0.0556,0,-0.2003,-0.2041,-0.2007,-0.1991,-0.1942,-0.1936,-0.1818,-0.1774,-0.1698,-0.1594,-0.1491,-0.1158,-0.0798,-0.0523,-0.0115,0.0079,0.0089,0.0189,0.0236,0.0257,-0.0167,-0.0207,0.0179,0.0179,0.0178,0.0178,0.0178,0.0178,-0.1853,-0.1829,-0.1905,-0.184,-0.1829,-0.1749,-0.17,-0.1628,-0.1574,-0.1405,-0.125,-0.1133,-0.0655,0.0098,0.0555,0.0605,0.0748,0.0772,0.0788,0.053,0.0479,0.0431,0.0407,0.0916,0.0916,0.1209,0.1213,0.1215]}],[{"header":{"parameterUnit":"m.s-1","parameterCategory":2,"la1":30.2991,"la2":30.254,"lo1":-89.0895,"lo2":-89.0444,"dy":0.0017,"dx":0.0017,"nx":28,"ny":28,"refTime":"2024-05-14T21:00:00:Z","depth":"2","parameterNumber":2,"parameterNumberName":"U-component_of_CURRENTS"},"data":[0,0,0,0,0,0,0,0,0,0,0,0,0,0,0,0,0,0,0,0,0,0,0,0,0,0,0,0,0,0,0,0,0,0,0,0,0,0,0,0,0,0,0,0,0,0,0,0,0,0,0,0,0,0,0,0,0,0,-0.022,-0.022,0,-0.027,-0.0271,-0.0272,-0.031,-0.031,-0.031,-0.0311,-0.0301,-0.0301,-0.0301,0,0,0,0,0,0,0,0,0,0,0,0,0,-0.0294,-0.0292,-0.022,-0.022,-0.0221,-0.027,-0.0271,-0.0272,-0.031,-0.031,-0.031,-0.0311,-0.0301,-0.0301,-0.0301,0,0,0,0,0,0,0,0,0,0,0,0,0,-0.0297,-0.0291,-0.022,-0.0245,-0.0247,-0.027,-0.0271,-0.0272,-0.031,-0.031,-0.0311,-0.0311,-0.0302,-0.0301,-0.03,-0.0291,0,0,-0.0299,-0.0298,0,0,0,0,0,0,0,0,-0.0296,-0.0294,-0.024,-0.0243,-0.0246,-0.0283,-0.0294,-0.0275,-0.031,-0.0288,-0.0311,-0.0311,-0.0288,-0.0289,-0.0301,-0.0291,-0.029,-0.0298,-0.0298,-0.0298,-0.0298,0,0,0,0,0,0,0,-0.0296,-0.0293,-0.0242,-0.0241,-0.0244,-0.03,-0.03,-0.0292,-0.0286,-0.029,-0.0292,-0.0295,-0.0289,-0.0302,-0.0301,-0.029,-0.0298,-0.0298,-0.0298,-0.0297,-0.0238,-0.0236,0,0,0,0,0,0,-0.0278,-0.0291,-0.024,-0.0243,-0.027,-0.0298,-0.0298,-0.0272,-0.0288,-0.029,-0.0295,-0.0297,-0.0303,-0.0302,-0.03,-0.0272,-0.0298,-0.0297,-0.0297,-0.0239,-0.0237,-0.0236,0,0,0,0,0,0,-0.0279,-0.0272,-0.0238,-0.027,-0.0269,-0.0295,-0.0267,-0.0273,-0.0277,-0.0292,-0.0294,-0.0291,-0.0303,-0.0301,-0.0288,-0.0273,-0.0297,-0.0296,-0.024,-0.0238,-0.0237,-0.0227,0,0,0,0,0,0,-0.028,-0.0271,-0.0257,-0.0267,-0.0266,-0.0243,-0.0267,-0.0274,-0.0277,-0.028,-0.0289,-0.029,-0.0303,-0.0289,-0.0287,-0.0272,-0.0296,-0.0242,-0.0239,-0.0237,-0.0228,-0.0225,-0.0221,0,0,0,0,0,-0.0282,-0.0252,-0.0255,-0.025,-0.0241,-0.0242,-0.0247,-0.027,-0.0277,-0.0275,-0.0282,-0.0289,-0.0273,-0.0287,-0.0286,-0.027,-0.0243,-0.024,-0.0237,-0.023,-0.0225,-0.0221,0,0,0,0,0,0,-0.028,-0.0254,-0.0257,-0.0221,-0.0229,-0.0247,-0.025,-0.026,-0.0266,-0.0266,-0.0279,-0.0279,-0.026,-0.026,-0.0276,-0.0243,-0.0256,-0.0253,-0.0251,-0.0246,-0.0243,-0.0251,-0.0295,0,0,0,0,0,-0.0271,-0.0238,-0.0236,-0.021,-0.0209,-0.0227,-0.0233,-0.0243,-0.0248,-0.0252,-0.026,-0.0258,-0.0249,-0.0244,-0.024,-0.0223,-0.0209,-0.0208,-0.0204,-0.0201,-0.0205,-0.0217,-0.0216,-0.0227,-0.0227,-0.0227,0,0,-0.0262,-0.0246,-0.0228,-0.0209,-0.0217,-0.0213,-0.0231,-0.0228,-0.0229,-0.0246,-0.0247,-0.0245,-0.024,-0.0228,-0.0218,-0.0226,-0.0172,-0.0198,-0.0196,-0.0201,-0.0214,-0.0213,-0.0213,-0.0225,-0.0226,-0.0226,0,0,-0.0235,-0.0214,-0.0184,-0.0187,-0.0189,-0.0199,-0.0191,-0.0202,-0.021,-0.0206,-0.0216,-0.0206,-0.0198,-0.0199,-0.0194,-0.0163,-0.0154,-0.0152,-0.0145,-0.0156,-0.0156,-0.0156,-0.0062,-0.0055,-0.0152,-0.0152,-0.0152,0,-0.022,-0.019,-0.0182,-0.0169,-0.0172,-0.0186,-0.0175,-0.0183,-0.0192,-0.0196,-0.0201,-0.0192,-0.0187,-0.0171,-0.0164,-0.0157,-0.0133,-0.0166,-0.0154,-0.0155,-0.0155,-0.006,-0.0051,-0.0151,-0.0151,-0.0151,-0.0151,0,-0.0183,-0.0169,-0.0154,-0.0136,-0.0141,-0.0131,-0.0141,-0.0147,-0.0156,-0.0168,-0.0158,-0.0158,-0.0157,-0.0144,-0.0146,-0.0136,-0.0102,-0.0151,-0.0173,-0.0154,-0.0053,-0.0044,-0.015,-0.015,-0.015,-0.015,0,0,-0.0104,-0.012,-0.0117,-0.0123,-0.0122,-0.0123,-0.0122,-0.0128,-0.0138,-0.0138,-0.0144,-0.0124,-0.0133,-0.0128,-0.0126,-0.0129,-0.0083,-0.0142,-0.0143,-0.0058,-0.0033,-0.0072,-0.0065,-0.0148,-0.0149,-0.0149,0.0066,0,-0.0072,-0.0061,-0.0075,-0.0072,-0.0065,-0.0089,-0.01,-0.0112,-0.0122,-0.0135,-0.0127,-0.0129,-0.0124,-0.0126,-0.0127,-0.0116,-0.0072,-0.0131,-0.0055,-0.005,-0.01,-0.0064,-0.0183,-0.0012,0.0075,0.0076,0.0077,0,-0.0023,-0.0027,-0.0024,-0.0057,-0.0057,-0.0065,-0.009,-0.0105,-0.0125,-0.0134,-0.0132,-0.0133,-0.0112,-0.0132,-0.007,-0.0114,-0.0061,-0.0038,-0.0031,-0.0078,-0.0079,-0.0031,0.0,0.0091,0.009,0.0089,0.0088,0,0.0022,0.0012,0.0006,0.0001,-0.0035,-0.0048,-0.0076,-0.0104,-0.012,-0.0138,-0.0146,-0.0126,-0.012,-0.0086,-0.003,-0.0055,0.004,0.001,0.0059,0.0063,-0.003,-0.0038,0.007,0.007,0.0069,0.0069,0.0068,0,0.0064,0.0068,0.0019,0.0019,-0.0002,-0.0039,-0.0058,-0.0093,-0.0124,-0.0123,-0.0151,-0.0132,-0.0125,-0.0072,-0.0014,0.0056,0.0064,0.0079,0.009,-0.0019,-0.0028,0.0041,0.0035,0.0077,0.0075,0.0073,0.0072,0,0.012,0.0086,0.0084,0.0038,0.0019,-0.0002,-0.0053,-0.0061,-0.0114,-0.0112,-0.0116,-0.0128,-0.0066,-0.0014,0.0064,0.0075,0.0145,0.0181,0.0105,0.0098,0.02,0.0192,0.0272,0.0271,0.0271,0.0271,0.0271,0,0.015,0.0156,0.0108,0.0098,0.0076,0.0043,0.0025,-0.0045,-0.0042,-0.0085,-0.0068,-0.0045,-0.0,0.0091,0.0114,0.0223,0.022,0.0152,0.0051,0.0206,0.0209,0.0202,0.0194,-0.0001,-0.0003,-0.0005,-0.0006,0,0.0226,0.0207,0.0194,0.0165,0.0139,0.0117,0.0089,0.0082,0.0026,0.0002,0.0011,0.0024,0.0081,0.0053,0.0112,0.017,0.0104,0.0116,0.0274,-0.0068,-0.0046,-0.0044,-0.0043,-0.0023,-0.0022,-0.002,-0.0019,-0.0019,0.0289,0.0291,0.0267,0.0204,0.0196,0.0177,0.016,0.0143,0.0106,-0.0,0.0059,-0.0083,-0.0037,-0.0091,0.0039,0.0069,0.0105,0.0023,0.0027,0.0033,-0.0073,-0.0057,-0.0046,-0.0045,-0.0044,-0.0043,-0.0042,0,0.0334,0.0306,0.0306,0.0244,0.0222,0.0211,0.0191,0.0116,0.0062,-0.0062,-0.011,-0.0242,-0.0276,-0.025,-0.0238,-0.0121,-0.009,-0.0117,-0.0164,-0.0151,-0.0138,-0.0254,-0.0273,-0.0273,-0.0272,-0.0272,0,0,0.0337,0.0328,0.0281,0.0227,0.0213,0.014,0.0112,0.0005,-0.0132,-0.0287,-0.0485,-0.0546,-0.049,-0.0527,-0.0359,-0.0373,-0.026,-0.0334,-0.0176,-0.0237,-0.0225,-0.0103,-0.0273,0,0,0,0,0]},{"header":{"parameterUnit":"m.s-1","parameterCategory":2,"la1":30.2991,"la2":30.254,"lo1":-89.0895,"lo2":-89.0444,"dy":0.0017,"dx":0.0017,"nx":28,"ny":28,"refTime":"2024-05-14T21:00:00:Z","depth":"2","parameterNumber":3,"parameterNumberName":"V-component_of_CURRENTS"},"data":[0,0,0,0,0,0,0,0,0,0,0,0,0,0,0,0,0,0,0,0,0,0,0,0,0,0,0,0,0,0,0,0,0,0,0,0,0,0,0,0,0,0,0,0,0,0,0,0,0,0,0,0,0,0,0,0,0,0,0.0268,0.0271,0,0.0498,0.05,0.0502,0.0516,0.0514,0.0512,0.051,0.0474,0.0475,0.0476,0,0,0,0,0,0,0,0,0,0,0,0,0,0.0101,0.0102,0.0268,0.0271,0.0274,0.0497,0.05,0.0503,0.0516,0.0514,0.0511,0.0509,0.0473,0.0475,0.0476,0,0,0,0,0,0,0,0,0,0,0,0,0,0.023,0.0102,0.0267,0.0312,0.0319,0.0497,0.05,0.0503,0.0517,0.0514,0.0511,0.0508,0.0473,0.0474,0.0476,0.0548,0,0,0.048,0.0481,0,0,0,0,0,0,0,0,0.0222,0.0235,0.0302,0.031,0.0318,0.048,0.0429,0.0507,0.0518,0.0436,0.051,0.0506,0.0457,0.046,0.0506,0.0546,0.0544,0.0481,0.0481,0.0482,0.0482,0,0,0,0,0,0,0,0.0213,0.0227,0.0353,0.0306,0.0316,0.0411,0.0423,0.0446,0.0452,0.0443,0.0446,0.0482,0.0458,0.0505,0.0504,0.0544,0.048,0.0482,0.0483,0.0483,0.0592,0.0593,0,0,0,0,0,0,0.0187,0.0217,0.0346,0.036,0.0268,0.0416,0.0429,0.0426,0.0457,0.0463,0.0484,0.0481,0.0504,0.0503,0.0503,0.0507,0.0482,0.0483,0.0484,0.059,0.0592,0.0594,0,0,0,0,0,0,0.0181,0.0194,0.0336,0.0301,0.0327,0.0421,0.0419,0.0433,0.0446,0.0493,0.0491,0.0479,0.0501,0.05,0.0505,0.0508,0.0484,0.0485,0.0587,0.059,0.0593,0.0568,0,0,0,0,0,0,0.0175,0.019,0.0172,0.0298,0.0328,0.043,0.0423,0.044,0.0478,0.0476,0.0489,0.0485,0.0498,0.0503,0.0506,0.051,0.0487,0.0585,0.0589,0.0592,0.0566,0.057,0.0572,0,0,0,0,0,0.0167,0.0177,0.0168,0.0185,0.03,0.0433,0.0456,0.0511,0.048,0.0505,0.0501,0.0483,0.0529,0.0505,0.0509,0.0513,0.0583,0.0587,0.0592,0.0565,0.0569,0.0572,0,0,0,0,0,0,0.0153,0.0184,0.0176,0.0206,0.0298,0.0436,0.0471,0.0497,0.0524,0.0491,0.0503,0.0502,0.051,0.0527,0.05,0.0562,0.0556,0.0561,0.0534,0.0538,0.0541,0.0539,0.0488,0,0,0,0,0,0.0126,0.0097,0.0196,0.0223,0.0254,0.0347,0.0399,0.0436,0.049,0.0498,0.0506,0.0518,0.0546,0.0547,0.0575,0.0603,0.0559,0.0615,0.0618,0.062,0.0627,0.0553,0.0548,0.0609,0.0609,0.0609,0,0,0.0142,0.0149,0.0144,0.0211,0.0273,0.0354,0.0367,0.0442,0.0494,0.0487,0.0516,0.052,0.0557,0.0591,0.0597,0.0593,0.0579,0.0626,0.0627,0.0632,0.0557,0.055,0.0544,0.0612,0.0611,0.0611,0,0,0.0179,0.0148,0.0143,0.0207,0.0282,0.0345,0.0352,0.0454,0.0467,0.0513,0.0519,0.0529,0.0566,0.0608,0.063,0.0674,0.0595,0.0672,0.0681,0.0609,0.0602,0.0595,0.0505,0.049,0.0674,0.0674,0.0674,0,0.0175,0.0201,0.0186,0.023,0.0292,0.0329,0.0403,0.0447,0.0535,0.0546,0.0507,0.0571,0.0586,0.0649,0.0663,0.0677,0.06,0.0653,0.0606,0.0599,0.0592,0.0501,0.0485,0.0674,0.0674,0.0674,0.0674,0,0.0247,0.0263,0.0285,0.031,0.0372,0.0448,0.051,0.053,0.0521,0.0567,0.0586,0.0607,0.0638,0.0654,0.0666,0.0658,0.0604,0.0606,0.0578,0.0582,0.0489,0.0472,0.0673,0.0673,0.0673,0.0673,0,0,0.0242,0.0304,0.0308,0.0339,0.0416,0.0483,0.053,0.0609,0.0614,0.0642,0.0643,0.0709,0.0675,0.0702,0.0708,0.0663,0.0544,0.0601,0.0597,0.0479,0.0332,0.0482,0.0478,0.0496,0.0494,0.0493,0.0274,0,0.03,0.0374,0.0395,0.0497,0.056,0.0586,0.0626,0.0678,0.0683,0.0676,0.0682,0.067,0.0707,0.0664,0.0642,0.0525,0.0502,0.0601,0.0376,0.037,0.0475,0.0467,0.0588,0.0421,0.0258,0.0255,0.0253,0,0.0373,0.0408,0.0487,0.0564,0.0585,0.0612,0.0649,0.0693,0.0695,0.0684,0.068,0.0652,0.0593,0.0605,0.0451,0.0481,0.0431,0.0369,0.0358,0.0502,0.0492,0.0401,0.0397,0.0225,0.0227,0.0229,0.0231,0,0.0386,0.0485,0.0527,0.0565,0.064,0.0625,0.0636,0.0661,0.0651,0.0629,0.0578,0.0556,0.0436,0.0375,0.0291,0.0304,0.0105,0.0105,0.023,0.0236,0.031,0.033,0.0065,0.0066,0.0066,0.0067,0.0068,0,0.0451,0.0484,0.0504,0.0529,0.0507,0.0586,0.0513,0.0552,0.054,0.0495,0.053,0.0467,0.0354,0.0257,0.0225,0.0165,0.0051,0.0232,0.0202,0.031,0.0332,0.0153,0.0167,0.0059,0.006,0.0062,0.0063,0,0.0419,0.0471,0.0487,0.0517,0.0491,0.0443,0.0357,0.034,0.0359,0.0281,0.0247,0.0264,0.0136,0.0117,-0.0034,0.0052,0.0005,0.0062,0.0202,0.02,0.0185,0.0199,0.009,0.0094,0.0097,0.01,0.0102,0,0.0381,0.04,0.0375,0.0299,0.0258,0.017,0.011,0.0184,0.0156,0.0166,0.0126,0.0051,0.004,-0.005,0.0036,0.0044,0.0041,0.0229,0.0357,0.0211,0.0191,0.0201,0.0212,0.0392,0.0397,0.04,0.0403,0,0.0247,0.0222,0.0192,0.0092,0.0004,-0.0043,-0.0121,-0.0129,-0.004,-0.0062,-0.0043,-0.0029,-0.0027,0.0095,0.0211,0.0234,0.023,0.031,0.0054,0.043,0.0496,0.0478,0.0477,0.0435,0.0432,0.043,0.0428,0.0427,0.0042,0.0023,-0.0018,-0.0123,-0.0204,-0.0173,-0.0221,-0.0233,-0.0199,-0.0137,-0.0145,-0.0052,0.0107,0.0325,0.0351,0.0417,0.0437,0.0531,0.0517,0.05,0.0638,0.0713,0.0714,0.0712,0.0711,0.0709,0.0708,0,-0.0137,-0.0102,-0.0216,-0.0239,-0.031,-0.0313,-0.0298,-0.0275,-0.0233,-0.0188,-0.0168,0.0088,0.0303,0.0402,0.0621,0.0729,0.063,0.0686,0.0623,0.0601,0.0579,0.0714,0.0811,0.0809,0.0807,0.0805,0,0,-0.0179,-0.0253,-0.0205,-0.031,-0.035,-0.0296,-0.0251,-0.0235,-0.0189,-0.0094,0.0007,0.0116,0.0386,0.053,0.0669,0.0765,0.058,0.07,0.0656,0.0553,0.0523,0.0587,0.0788,0,0,0,0,0]}],[{"header":{"parameterUnit":"m.s-1","parameterCategory":2,"la1":30.2991,"la2":30.254,"lo1":-89.0895,"lo2":-89.0444,"dy":0.0017,"dx":0.0017,"nx":28,"ny":28,"refTime":"2024-05-14T21:00:00:Z","depth":"4","parameterNumber":2,"parameterNumberName":"U-component_of_CURRENTS"},"data":[0,0,0,0,0,0,0,0,0,0,0,0,0,0,0,0,0,0,0,0,0,0,0,0,0,0,0,0,0,0,0,0,0,0,0,0,0,0,0,0,0,0,0,0,0,0,0,0,0,0,0,0,0,0,0,0,0,0,-0.0505,-0.0505,0,-0.0506,-0.0506,-0.0506,-0.0507,-0.0507,-0.0507,-0.0507,-0.0524,-0.0524,-0.0524,0,0,0,0,0,0,0,0,0,0,0,0,0,-0.0433,-0.0434,-0.0505,-0.0505,-0.0505,-0.0506,-0.0506,-0.0506,-0.0507,-0.0507,-0.0507,-0.0507,-0.0524,-0.0524,-0.0524,0,0,0,0,0,0,0,0,0,0,0,0,0,-0.045,-0.0435,-0.0505,-0.0507,-0.0508,-0.0506,-0.0506,-0.0506,-0.0507,-0.0507,-0.0507,-0.0507,-0.0524,-0.0524,-0.0524,-0.0521,0,0,-0.0525,-0.0526,0,0,0,0,0,0,0,0,-0.0449,-0.0453,-0.0507,-0.0507,-0.0508,-0.0508,-0.0487,-0.0512,-0.0506,-0.0505,-0.0507,-0.0508,-0.0521,-0.0522,-0.0518,-0.0522,-0.0522,-0.0526,-0.0526,-0.0526,-0.0526,0,0,0,0,0,0,0,-0.0448,-0.0452,-0.0503,-0.0507,-0.0508,-0.0484,-0.0487,-0.0491,-0.051,-0.0505,-0.0506,-0.0509,-0.0521,-0.0518,-0.0519,-0.0523,-0.0526,-0.0526,-0.0526,-0.0526,-0.0516,-0.0516,0,0,0,0,0,0,-0.0456,-0.0452,-0.0503,-0.0504,-0.0481,-0.0486,-0.0489,-0.0506,-0.051,-0.0511,-0.0509,-0.0509,-0.0517,-0.0518,-0.0519,-0.0526,-0.0526,-0.0526,-0.0526,-0.0517,-0.0516,-0.0516,0,0,0,0,0,0,-0.0455,-0.0461,-0.0503,-0.0478,-0.0482,-0.0487,-0.0506,-0.0506,-0.0508,-0.0513,-0.0514,-0.0512,-0.0517,-0.0519,-0.0521,-0.0526,-0.0526,-0.0527,-0.0518,-0.0517,-0.0516,-0.0533,0,0,0,0,0,0,-0.0453,-0.0461,-0.0472,-0.0479,-0.0484,-0.0504,-0.0506,-0.0506,-0.0511,-0.0511,-0.0516,-0.0517,-0.0518,-0.0521,-0.0522,-0.0527,-0.0527,-0.0518,-0.0517,-0.0516,-0.0533,-0.0533,-0.0533,0,0,0,0,0,-0.045,-0.0464,-0.0473,-0.0478,-0.0501,-0.0504,-0.0504,-0.0506,-0.0511,-0.0509,-0.0511,-0.0517,-0.0515,-0.0521,-0.0522,-0.0528,-0.0519,-0.0517,-0.0516,-0.0533,-0.0533,-0.0533,0,0,0,0,0,0,-0.0436,-0.0466,-0.0475,-0.0498,-0.0502,-0.0505,-0.0507,-0.0509,-0.0509,-0.0513,-0.0515,-0.0516,-0.0517,-0.0516,-0.0522,-0.0519,-0.0516,-0.0516,-0.0529,-0.0528,-0.0528,-0.0531,-0.0527,0,0,0,0,0,-0.044,-0.046,-0.0477,-0.0492,-0.05,-0.0505,-0.0506,-0.0509,-0.0512,-0.0512,-0.0514,-0.0514,-0.0512,-0.0517,-0.0512,-0.0516,-0.0519,-0.0517,-0.0517,-0.0517,-0.0518,-0.0546,-0.0549,-0.0512,-0.0512,-0.0512,0,0,-0.0435,-0.0457,-0.0465,-0.049,-0.0497,-0.0498,-0.0506,-0.0513,-0.0509,-0.0515,-0.0511,-0.0513,-0.0511,-0.0511,-0.0511,-0.0514,-0.0522,-0.0516,-0.0516,-0.0517,-0.0545,-0.0549,-0.0553,-0.0511,-0.0512,-0.0512,0,0,-0.0431,-0.0461,-0.0472,-0.0479,-0.0495,-0.0497,-0.0501,-0.0508,-0.051,-0.0506,-0.0508,-0.0514,-0.0508,-0.0512,-0.0512,-0.0507,-0.0517,-0.0506,-0.0516,-0.0543,-0.0547,-0.055,-0.0533,-0.0535,-0.0511,-0.0511,-0.0511,0,-0.0422,-0.0443,-0.047,-0.0479,-0.048,-0.0497,-0.0494,-0.0498,-0.05,-0.0506,-0.0504,-0.051,-0.0507,-0.0519,-0.0513,-0.0509,-0.0516,-0.0521,-0.0545,-0.0549,-0.0553,-0.0535,-0.0537,-0.0511,-0.0511,-0.0511,-0.0511,0,-0.0419,-0.0435,-0.0442,-0.0461,-0.0464,-0.0466,-0.0478,-0.0483,-0.0487,-0.0494,-0.0507,-0.051,-0.0518,-0.0516,-0.0512,-0.0535,-0.0526,-0.0541,-0.0552,-0.0558,-0.0537,-0.0539,-0.0512,-0.0512,-0.0512,-0.0512,0,0,-0.0397,-0.0432,-0.0433,-0.0436,-0.0454,-0.0454,-0.046,-0.0468,-0.0479,-0.0489,-0.0508,-0.0504,-0.0526,-0.0527,-0.0536,-0.0556,-0.057,-0.0561,-0.0562,-0.0554,-0.0606,-0.0571,-0.057,-0.0605,-0.0606,-0.0607,-0.0573,0,-0.0381,-0.0389,-0.0411,-0.0404,-0.0405,-0.0426,-0.0428,-0.0442,-0.0461,-0.0485,-0.0513,-0.0524,-0.0527,-0.0536,-0.0564,-0.0575,-0.058,-0.0576,-0.0593,-0.0592,-0.0571,-0.0573,-0.061,-0.0575,-0.0575,-0.0575,-0.0576,0,-0.0365,-0.0373,-0.0365,-0.0379,-0.0383,-0.0379,-0.0395,-0.0401,-0.0449,-0.0466,-0.0509,-0.0537,-0.0568,-0.0571,-0.0603,-0.0607,-0.0602,-0.0605,-0.0605,-0.0572,-0.0563,-0.0572,-0.0579,-0.0579,-0.0579,-0.0578,-0.0578,0,-0.0323,-0.0339,-0.0329,-0.0332,-0.035,-0.035,-0.0357,-0.0393,-0.0407,-0.046,-0.0477,-0.054,-0.0543,-0.0591,-0.0598,-0.0609,-0.0628,-0.0643,-0.0599,-0.0594,-0.0629,-0.0626,-0.0656,-0.0656,-0.0656,-0.0656,-0.0656,0,-0.0292,-0.0285,-0.0309,-0.0301,-0.0292,-0.0317,-0.032,-0.0342,-0.0389,-0.0413,-0.0466,-0.0496,-0.0549,-0.0576,-0.0606,-0.0603,-0.0632,-0.0595,-0.0593,-0.0631,-0.0628,-0.0629,-0.0626,-0.0655,-0.0655,-0.0655,-0.0656,0,-0.0248,-0.0263,-0.0256,-0.0271,-0.0272,-0.0265,-0.0288,-0.0304,-0.0335,-0.0372,-0.0386,-0.0446,-0.0478,-0.0519,-0.0563,-0.057,-0.0599,-0.0581,-0.0586,-0.0585,-0.0541,-0.0539,-0.054,-0.0539,-0.0538,-0.0537,-0.0536,0,-0.0224,-0.0216,-0.0227,-0.0225,-0.0229,-0.0227,-0.0235,-0.027,-0.0294,-0.0349,-0.0371,-0.0398,-0.0439,-0.0459,-0.0518,-0.0555,-0.0553,-0.0539,-0.0571,-0.0536,-0.0534,-0.0534,-0.0534,-0.0534,-0.0534,-0.0534,-0.0534,0,-0.0182,-0.0191,-0.0191,-0.0188,-0.0189,-0.0202,-0.0218,-0.0227,-0.0277,-0.0295,-0.0337,-0.0373,-0.039,-0.0443,-0.0441,-0.0486,-0.0553,-0.0528,-0.0531,-0.0561,-0.0529,-0.0528,-0.0529,-0.053,-0.053,-0.0531,-0.0531,0,-0.0152,-0.0157,-0.0167,-0.0158,-0.016,-0.0189,-0.0199,-0.0224,-0.0246,-0.0297,-0.0311,-0.036,-0.038,-0.0406,-0.0444,-0.0452,-0.0461,-0.0456,-0.0463,-0.0468,-0.0468,-0.0417,-0.038,0,0,0,0,0,-0.0131,-0.0151,-0.0141,-0.0155,-0.0154,-0.0177,-0.0198,-0.0219,-0.0249,-0.026,-0.0284,-0.0313,-0.0352,-0.039,-0.0389,-0.0442,-0.0476,-0.0441,-0.0476,-0.0509,-0.0513,-0.0525,0,0,0,0,0,0,-0.0129,-0.0136,-0.0143,-0.0147,-0.0162,-0.0193,-0.0216,-0.0248,-0.0254,-0.0271,-0.029,-0.0298,-0.034,-0.0346,-0.0385,-0.0394,-0.0411,-0.0464,-0.0463,-0.0506,-0.051,-0.0514,-0.0527,0,0,0,0,0]},{"header":{"parameterUnit":"m.s-1","parameterCategory":2,"la1":30.2991,"la2":30.254,"lo1":-89.0895,"lo2":-89.0444,"dy":0.0017,"dx":0.0017,"nx":28,"ny":28,"refTime":"2024-05-14T21:00:00:Z","depth":"4","parameterNumber":3,"parameterNumberName":"V-component_of_CURRENTS"},"data":[0,0,0,0,0,0,0,0,0,0,0,0,0,0,0,0,0,0,0,0,0,0,0,0,0,0,0,0,0,0,0,0,0,0,0,0,0,0,0,0,0,0,0,0,0,0,0,0,0,0,0,0,0,0,0,0,0,0,0.0646,0.0647,0,0.0707,0.0708,0.0709,0.0748,0.0749,0.0749,0.0749,0.0808,0.0809,0.0811,0,0,0,0,0,0,0,0,0,0,0,0,0,0.0596,0.0596,0.0646,0.0647,0.0648,0.0707,0.0708,0.0709,0.0748,0.0749,0.0749,0.0749,0.0808,0.0809,0.0811,0,0,0,0,0,0,0,0,0,0,0,0,0,0.0633,0.0596,0.0646,0.0675,0.0678,0.0707,0.0708,0.0709,0.0748,0.0749,0.0749,0.0749,0.0807,0.0809,0.0811,0.0816,0,0,0.0817,0.0818,0,0,0,0,0,0,0,0,0.0631,0.0635,0.067,0.0673,0.0676,0.0721,0.0712,0.0745,0.0748,0.0721,0.0749,0.075,0.0778,0.0783,0.0793,0.0819,0.0821,0.0817,0.0819,0.0819,0.082,0,0,0,0,0,0,0,0.0628,0.0633,0.067,0.067,0.0675,0.0695,0.0701,0.0719,0.0747,0.0724,0.0727,0.0734,0.078,0.0791,0.0795,0.0822,0.0817,0.0819,0.082,0.0821,0.084,0.084,0,0,0,0,0,0,0.0619,0.063,0.0668,0.0672,0.0654,0.0696,0.0702,0.0706,0.0747,0.0754,0.0733,0.0735,0.0788,0.0793,0.0797,0.081,0.0819,0.0821,0.0822,0.0841,0.084,0.0839,0,0,0,0,0,0,0.0617,0.0622,0.0666,0.0653,0.066,0.0696,0.0701,0.0707,0.0727,0.0754,0.0761,0.0748,0.0788,0.0794,0.0818,0.0812,0.0822,0.0824,0.0842,0.0841,0.084,0.0832,0,0,0,0,0,0,0.0616,0.0621,0.0628,0.0652,0.066,0.0686,0.07,0.0708,0.073,0.0734,0.0768,0.0774,0.0789,0.0814,0.082,0.0815,0.0826,0.0843,0.0841,0.084,0.0833,0.0831,0.0829,0,0,0,0,0,0.0614,0.0616,0.0628,0.0633,0.0666,0.0687,0.0693,0.072,0.073,0.074,0.0761,0.0773,0.0809,0.0816,0.0822,0.0818,0.0843,0.0842,0.084,0.0834,0.0831,0.0829,0,0,0,0,0,0,0.0601,0.0621,0.0634,0.0644,0.0667,0.0693,0.0708,0.0722,0.0748,0.0753,0.0776,0.0783,0.0797,0.0806,0.0813,0.0816,0.0823,0.0823,0.0816,0.0814,0.0812,0.0799,0.0827,0,0,0,0,0,0.0601,0.0609,0.0632,0.0644,0.0653,0.0681,0.0696,0.0712,0.0734,0.0746,0.0771,0.0786,0.0793,0.0804,0.0815,0.0827,0.0869,0.0822,0.082,0.0818,0.0809,0.0881,0.0885,0.0834,0.0834,0.0834,0,0,0.0602,0.0613,0.0621,0.0642,0.0663,0.0672,0.0692,0.0712,0.0717,0.0748,0.0769,0.0784,0.0793,0.0802,0.0808,0.0813,0.0857,0.0816,0.0815,0.0807,0.088,0.0885,0.089,0.0833,0.0833,0.0834,0,0,0.0604,0.0617,0.0625,0.0638,0.0663,0.0674,0.0679,0.0709,0.072,0.0742,0.0754,0.0765,0.0793,0.0791,0.0793,0.0784,0.0842,0.0787,0.0772,0.0842,0.0848,0.0853,0.0931,0.0944,0.0788,0.0788,0.0788,0,0.0607,0.0615,0.0632,0.064,0.0646,0.0672,0.0675,0.0689,0.0723,0.0719,0.0746,0.0766,0.0781,0.0771,0.0769,0.0779,0.0841,0.0786,0.0843,0.0849,0.0854,0.0933,0.0947,0.0788,0.0788,0.0788,0.0788,0,0.0611,0.0621,0.0625,0.0638,0.0645,0.0654,0.0666,0.0672,0.069,0.0701,0.0708,0.0738,0.0756,0.0751,0.0763,0.0788,0.0828,0.0836,0.0856,0.086,0.0942,0.0957,0.0787,0.0787,0.0787,0.0788,0,0,0.0606,0.0624,0.0627,0.0625,0.0642,0.0642,0.0639,0.0634,0.0625,0.0663,0.0672,0.0676,0.0711,0.0714,0.0734,0.0777,0.0877,0.0828,0.0832,0.0917,0.106,0.0929,0.0933,0.0916,0.0918,0.092,0.111,0,0.0606,0.0612,0.0619,0.0616,0.0615,0.0617,0.0606,0.0602,0.0613,0.0632,0.0653,0.0684,0.0694,0.0728,0.077,0.0857,0.0912,0.0826,0.1033,0.1038,0.0931,0.0942,0.0926,0.1121,0.1124,0.1127,0.1128,0,0.0603,0.0604,0.061,0.0587,0.0585,0.0591,0.0563,0.056,0.0571,0.0589,0.0623,0.0667,0.0736,0.0758,0.0911,0.0871,0.0964,0.1021,0.103,0.0914,0.0931,0.111,0.1155,0.1153,0.1151,0.1149,0.1148,0,0.0586,0.0586,0.0587,0.0588,0.0578,0.0574,0.0566,0.0554,0.0564,0.0598,0.0643,0.0699,0.0796,0.0893,0.102,0.1001,0.1197,0.1192,0.1151,0.1145,0.1216,0.1208,0.1297,0.1296,0.1296,0.1295,0.1295,0,0.0571,0.0569,0.0588,0.0592,0.0584,0.0569,0.0569,0.0559,0.059,0.062,0.0656,0.0714,0.0845,0.0965,0.1052,0.1148,0.1244,0.1145,0.1175,0.1209,0.1198,0.1229,0.1218,0.1303,0.1301,0.13,0.1298,0,0.0569,0.0576,0.0587,0.0589,0.0591,0.0596,0.0617,0.0613,0.0636,0.0699,0.0737,0.0807,0.0927,0.1029,0.1202,0.1198,0.1289,0.13,0.1344,0.1376,0.119,0.1177,0.1273,0.127,0.1267,0.1264,0.1263,0,0.0573,0.0582,0.0616,0.0628,0.0646,0.0654,0.0657,0.0661,0.0672,0.0744,0.0783,0.0901,0.0947,0.1078,0.117,0.1295,0.1279,0.133,0.1213,0.1162,0.1184,0.1175,0.1166,0.1258,0.1257,0.1257,0.1256,0,0.0592,0.0624,0.0645,0.067,0.0692,0.0693,0.0704,0.072,0.073,0.0781,0.0803,0.0844,0.0952,0.1022,0.1116,0.1201,0.1287,0.13,0.1306,0.1196,0.1145,0.1168,0.1162,0.1246,0.1248,0.1249,0.1249,0,0.0633,0.0659,0.0692,0.0693,0.0729,0.0715,0.0713,0.0707,0.0717,0.0772,0.0792,0.0875,0.0946,0.0978,0.1077,0.1121,0.1101,0.1074,0.1091,0.1103,0.095,0.0854,0.0891,0,0,0,0,0,0.0655,0.0659,0.0689,0.0691,0.0725,0.072,0.0729,0.0719,0.0751,0.0746,0.0751,0.0822,0.0883,0.0919,0.0936,0.1033,0.1135,0.1049,0.1119,0.1192,0.1204,0.1033,0,0,0,0,0,0,0.067,0.0705,0.0691,0.0684,0.0678,0.0692,0.0694,0.0704,0.0671,0.0712,0.074,0.0775,0.0846,0.0878,0.0924,0.0943,0.097,0.11,0.1098,0.1186,0.1196,0.1205,0.1034,0,0,0,0,0]}]]